Showing default

ORBCOMM FM 17, 25413

Orbit data source: Space-Track

ORBCOMM FM 17, 25413 is a payload satellite owned by Orbcomm (US) in LEO that was launched on Sun, 02 Aug 1998 UTC via a PEGASUS XL/HAPS launch vehicle from the Pegasus Launch, Eastern Range Air Space (ERAS). Payload-class satellites include a variety of spacecraft equipped with specific instruments for various scientific and technological missions. These include communications satellites like Starlink; space stations such as the ISS; scientific satellites like the Hubble; Earth observation satellites from companies like Planet Labs, Umbra, and HawkEye 360; GPS; miniature CubeSats for education and research; and military/defense satellites.

Loading next visibility...
Identifier
25413, 1998-046A
Orbit
LEO
Country
Flag of USUS / ORB
Related business
Manufacturer
OSC-Germantown
Mission
Non-operational Commercial Communications
Bus & Motor
MICROSTAR, Unknown motor
Mass
42 kg wet, 42 kg dry
Launch date (UTC)
1998-08-02 (28 years ago)
Launch vehicle
PEGASUS XL/HAPS
Launch site
Pegasus Launch, Eastern Range Air Space (ERAS)
Object type
Payload
Rocket body
Debris
Shape & HBR
Cyl + 2 Pan, 4.2 m
Radar Cross Section
1.484 m², Medium (>0.1 m² and < 1m²)

Expand to show TLE details & history
Last TLE update: 8 hours ago

TLE from 8 hours ago
0 ORBCOMM FM 17
1 25413U 98046A   26038.02563234  .00001064  00000-0  41382-3 0  9998
2 25413  44.9926 228.8142 0002068 314.5756  45.4922 14.35680517436914
Epoch: 2026-02-07T00:36Z
TLE epoch observation values (Epoch: 2026-02-07T00:36:54.634Z)
Latitude
-0.00002°
Longitude
82.43147°
Altitude
771.767 km
Speed
7.47 km/s
True Right ascension
15h 15m 15s
True Declination
0° 00' 00"
Sunlit
Object was in daylight at epoch
Visualization orbit readout
Latitude
Unknown
Longitude
Unknown
Altitude
Unknown
Speed
Unknown
Apparent Right ascension
Unknown
Apparent Declination
Unknown
Sunlit
N/A
Visualization observer readout
Local Sidereal Time
11:16:00
Azimuth
Unknown
Elevation
Unknown
Doppler factor
Unknown
Orbital elements
Apogee altitude
775.83 km
Perigee altitude
772.872 km
Semi-major axis
7,152.488 km
Eccentricity
0.00021
Inclination
44.9926°
RAAN
228.8142°
Arg. of periapsis
314.5756°
True anomaly
45.5091°
Mean anomaly
45.4922°
Eccentric anomaly
45.50065°
Mean motion
3.58804 °/min
Orbital period
100.33 mins
BSTAR
0.00041382
Loading maneuver chart data...
Computing Atmospheric mass density...

Documentation

Showing up to 5 results
|